Overview Statistics Trail Chart Weather Telemetry Raw packets
 

This is the latest recevied weather packets stored in our database for station/object W7BTL. If no packets are shown the sender has not sent any weather packets the latest 10 day(s).

<< 38 39 40 41 42 43 44 >>
Time Temp. Humidity Pressure Rain* Wind** Luminosity Snow
1788399456 24.44° C 57% 1013.5 hPa 0 mm - 28 W/m² -
1788399155 25° C 54% 1013.6 hPa 0 mm - 39 W/m² -
1788398854 25° C 54% 1013.6 hPa 0 mm - 49 W/m² -
1788398554 25° C 54% 1013.5 hPa 0 mm - 56 W/m² -
1788398248 25.56° C 53% 1013.5 hPa 0 mm - 63 W/m² -
1788397947 25.56° C 56% 1013.3 hPa 0 mm - 73 W/m² -
1788397643 25.56° C 55% 1013.5 hPa 0 mm - 82 W/m² -
1788397343 26.11° C 54% 1013.5 hPa 0 mm - 92 W/m² -
1788397042 25.56° C 54% 1013.4 hPa 0 mm - 104 W/m² -
1788396737 26.11° C 50% 1013.4 hPa 0 mm - 117 W/m² -
1788396433 26.67° C 49% 1013.3 hPa 0 mm - 130 W/m² -
1788396128 26.67° C 49% 1013.3 hPa 0 mm - 143 W/m² -
1788395823 26.67° C 48% 1013.3 hPa 0 mm - 155 W/m² -
1788395519 26.67° C 48% 1013.3 hPa 0 mm - 179 W/m² -
1788395214 26.67° C 46% 1013.5 hPa 0 mm - 199 W/m² -
1788394908 27.22° C 47% 1013.4 hPa 0 mm - 211 W/m² -
1788394603 27.22° C 46% 1013.3 hPa 0 mm - 235 W/m² -
1788394303 27.22° C 44% 1013.3 hPa 0 mm - 254 W/m² -
1788393999 27.78° C 45% 1013.3 hPa 0 mm - 273 W/m² -
1788393698 27.78° C 45% 1013.2 hPa 0 mm - 280 W/m² -
1788393396 28.33° C 44% 1013.4 hPa 0 mm - 312 W/m² -
1788393093 27.78° C 43% 1013.4 hPa 0 mm - 332 W/m² -
1788392792 28.33° C 42% 1013.4 hPa 0 mm - 354 W/m² -
1788392491 28.33° C 41% 1013.5 hPa 0 mm - 374 W/m² -
1788392186 28.89° C 41% 1013.4 hPa 0 mm - 395 W/m² -

* Rain latest hour (hover to see other rain measurements)
** Current wind speed in m/s (hover to see current wind gust speed)